Location: Unspecified
(0.0000°N, 0.0000°E)
Time: 18:49:59
(UTC+00:00)

Explorer 11/Cluster Stage 4 - Pass Details

Date: 20 November 2019
Orbit: 467 x 1259 km, 28.8° (Epoch: 05 December)

Event Time Altitude Azimuth Distance (km) Brightness Sun altitude
Rises 15:58:37 0° 258° (WSW) 2,499 10.5 25.1°
Reaches altitude 10° 16:00:52 10° 269° (W) 1,657 9.7 24.5°
Maximum altitude 16:04:12 30° 332° (NNW) 946 7.3 23.8°
Drops below altitude 10° 16:07:57 10° 35° (NE) 1,879 8.1 22.9°
Sets 16:10:41 0° 45° (NE) 2,904 9.0 22.3°
